Theta_e
355 354 351 350 348 347 347 346 346 346 346 348 349 349 350 355 362 370 374 369 357 351 352 352 353 352 350 350 349 348 348 348 348 347 348 349 350 350 348 346 347 348 348 348 348 348 348 347 346 346 344 343 342 342 342 343 343 344 344 343 341 337 336 336 338 339 341 343 345 347 347 347 349 350
356 355 353 354 351 350 350 349 347 345 346 348 348 349 351 353 357 360 366 368 359 351 351 352 354 353 353 353 352 350 350 350 349 350 350 350 350 350 348 348 349 349 348 347 347 345 344 345 345 345 345 344 344 343 343 344 345 345 346 346 346 344 339 336 336 337 339 341 343 344 345 346 348 350
356 355 354 355 353 351 352 351 350 350 350 350 349 349 350 350 351 351 356 362 358 351 352 354 354 354 355 355 354 353 353 352 352 351 351 351 351 351 350 351 350 348 348 348 345 343 343 345 345 345 345 345 345 344 344 344 345 345 346 346 347 348 345 340 336 335 337 338 341 342 343 344 347 349
357 356 355 357 355 354 354 351 351 351 350 349 348 347 347 347 348 348 351 356 354 350 353 355 354 355 355 356 356 356 354 352 353 353 352 352 351 351 351 351 349 347 349 348 345 345 345 345 346 345 346 346 346 346 346 346 346 346 347 347 347 348 349 346 340 335 335 337 338 340 342 343 345 348
357 357 357 359 357 357 357 353 352 351 349 351 350 348 348 347 348 349 350 353 353 351 353 355 355 355 356 357 356 356 355 354 354 354 353 353 352 352 351 349 348 348 348 348 347 347 347 346 346 346 346 347 348 348 349 349 350 350 351 351 350 348 348 350 345 337 336 338 338 338 341 342 343 346
358 358 358 359 358 357 357 355 354 351 350 353 353 351 350 349 350 351 351 352 353 354 354 355 355 356 357 358 357 356 356 355 355 354 354 353 351 349 349 350 350 349 347 347 348 348 347 346 347 348 348 350 351 352 353 353 353 354 356 354 354 353 350 350 349 342 340 342 341 340 340 341 343 344
358 357 356 357 358 358 357 357 355 353 353 354 353 352 353 352 352 353 355 355 355 356 356 356 356 357 357 357 356 355 356 355 354 354 353 351 348 346 347 349 351 350 348 347 348 347 348 351 352 352 352 352 353 354 355 356 357 357 357 355 354 354 352 351 351 347 343 344 345 345 343 342 342 343
358 358 358 358 358 358 357 357 356 355 354 353 352 353 354 354 355 355 356 356 357 357 357 357 357 357 357 356 355 354 354 354 352 351 350 348 347 348 348 349 351 351 349 348 348 350 352 354 354 353 353 353 355 357 357 358 359 358 357 356 355 354 353 351 351 350 347 346 348 349 348 346 343 343
359 359 359 359 359 359 358 357 355 354 354 354 355 356 356 356 356 357 356 357 357 358 358 358 357 357 357 356 354 353 353 353 352 350 347 347 349 351 351 351 351 352 352 351 352 354 356 355 353 351 353 355 357 358 360 360 359 357 357 357 356 356 355 353 352 352 349 347 350 351 351 349 346 344
359 358 358 358 358 359 358 357 356 355 354 355 356 356 356 357 357 358 358 358 358 358 358 359 359 358 357 356 354 351 352 354 353 352 351 351 353 354 353 351 351 354 355 354 354 356 356 354 351 351 354 355 356 357 359 359 358 357 357 358 358 357 357 355 353 353 351 349 352 354 352 350 348 346
358 357 357 357 357 356 356 355 355 355 355 355 355 356 357 357 358 358 358 358 358 358 359 359 359 358 357 355 354 352 350 351 352 354 355 356 355 354 355 354 354 355 354 354 355 355 354 350 349 351 353 354 355 356 358 358 358 357 357 357 357 357 357 357 355 354 352 351 354 355 353 350 348 346
357 356 355 355 354 353 354 354 354 355 356 355 356 357 357 357 358 358 358 358 358 359 358 358 358 358 356 353 352 351 349 349 353 356 356 356 356 356 355 354 354 354 354 355 354 352 351 351 350 352 353 353 355 356 355 357 357 357 357 356 355 355 356 357 357 355 353 352 355 356 354 352 348 345
355 354 355 355 352 350 351 353 354 355 355 356 356 357 357 356 355 354 354 354 355 355 355 354 355 355 353 352 352 351 351 353 356 356 355 355 355 355 354 353 353 354 355 355 354 352 353 353 353 354 354 354 355 355 355 357 358 356 355 355 355 355 356 357 357 356 355 355 356 356 355 354 351 347
353 353 354 353 351 350 351 353 355 354 353 354 355 356 355 352 349 348 348 349 350 352 353 354 354 354 353 353 352 353 355 357 357 356 355 354 354 354 354 354 353 353 356 356 356 355 355 355 355 355 355 355 355 355 355 357 357 355 355 356 355 355 357 357 357 357 356 356 356 356 356 355 354 351
351 352 353 351 350 351 352 352 354 354 354 354 354 354 353 350 349 349 351 352 352 352 351 351 352 354 354 354 354 357 359 358 356 355 355 355 356 356 357 356 355 355 356 357 357 356 355 355 356 357 357 356 355 354 354 354 354 355 357 356 355 355 356 356 357 357 356 356 356 356 356 356 355 354
352 353 353 352 350 349 349 349 351 354 355 357 357 356 354 353 354 356 357 359 358 357 355 353 352 353 354 355 357 358 358 356 355 355 355 355 356 357 357 357 357 356 356 356 355 354 354 354 355 355 355 354 352 351 351 351 352 356 357 356 356 356 356 356 356 357 356 356 356 355 355 356 356 355
353 353 353 353 352 350 349 349 351 354 356 358 357 356 356 357 357 358 357 358 359 359 358 357 355 355 355 355 356 356 356 355 355 355 355 355 355 355 356 356 356 355 356 355 354 353 354 353 353 353 352 351 350 350 351 352 355 356 356 355 357 357 355 355 355 356 356 356 356 356 355 355 355 355
353 352 351 352 352 352 351 351 352 355 356 357 357 356 357 358 357 357 357 356 357 357 357 357 357 356 355 355 355 355 355 355 355 355 355 354 354 354 355 355 354 354 354 353 352 353 353 351 351 352 351 350 350 351 353 354 355 354 353 354 357 358 356 354 352 353 354 355 356 356 356 356 355 355
353 353 353 353 353 353 354 354 354 355 357 357 356 356 356 356 357 358 357 357 357 356 356 356 355 354 354 354 354 355 354 354 354 354 353 353 353 353 352 352 352 352 352 352 353 353 351 349 351 350 347 347 351 353 354 354 352 351 353 355 356 356 353 350 349 351 353 354 354 354 355 356 356 356
353 354 354 353 353 353 354 354 354 354 355 355 354 354 354 353 354 356 356 356 355 354 353 352 352 353 354 354 355 354 354 354 353 352 352 351 350 350 350 351 350 349 349 352 353 351 348 348 350 347 342 344 351 354 353 352 350 349 351 351 349 348 347 348 350 352 353 353 353 353 353 354 356 356
353 353 353 352 352 352 351 352 352 352 352 352 351 351 350 351 353 355 355 354 352 350 349 349 352 354 354 354 355 353 353 352 350 349 349 348 348 350 350 351 349 346 348 352 351 348 346 347 349 347 341 341 351 354 348 343 343 343 341 339 339 339 343 349 352 354 354 353 352 352 352 352 353 354
351 350 349 349 349 348 347 346 347 347 348 348 347 348 349 352 354 353 350 349 348 348 348 350 352 352 352 353 353 351 350 349 347 346 346 346 347 349 349 350 349 346 347 349 347 346 346 346 347 347 343 341 347 349 339 330 332 335 332 331 332 335 341 349 353 355 355 353 351 351 352 352 352 353
349 347 345 343 342 342 340 338 337 338 339 341 343 345 348 349 348 346 345 346 347 348 349 350 350 350 349 349 348 347 346 344 342 343 345 346 348 349 348 348 348 347 347 346 345 346 347 347 346 346 345 344 345 344 335 326 327 331 333 333 333 335 342 349 353 355 353 347 343 345 347 350 352 353
347 344 342 338 335 334 333 331 329 329 331 334 335 338 341 342 341 343 345 345 345 346 347 346 345 346 345 344 344 343 340 337 339 343 343 342 343 344 344 344 346 347 344 339 339 342 346 348 346 344 344 345 346 344 338 330 326 329 334 336 338 340 345 350 353 353 347 337 330 330 334 338 344 349
344 344 342 336 329 328 327 326 325 324 324 328 331 334 338 340 341 343 343 341 341 343 343 342 342 342 341 341 341 338 335 335 340 342 339 335 332 333 337 340 341 341 337 334 339 343 345 348 346 343 344 345 344 343 340 333 328 328 331 335 339 343 346 350 353 349 338 327 321 319 319 324 332 341
341 339 336 329 323 323 324 324 322 321 323 329 334 336 339 341 342 341 339 339 339 340 340 339 338 338 337 337 336 335 335 337 339 339 339 334 325 323 328 332 333 333 333 336 340 341 342 344 342 338 338 338 337 335 333 332 331 329 330 333 338 343 348 352 353 344 330 321 317 313 311 314 322 333
330 326 323 320 319 319 321 320 319 321 327 331 332 333 336 338 337 334 333 336 337 335 335 334 334 333 333 333 333 333 335 335 335 336 336 329 320 316 320 326 329 331 331 330 328 327 331 333 331 328 327 328 329 328 328 330 331 330 332 336 339 344 348 345 337 328 321 319 317 313 310 312 318 329
320 319 317 316 316 317 319 320 320 323 327 327 326 329 333 333 329 327 328 331 330 329 330 330 329 329 329 329 330 331 331 331 330 329 325 320 317 318 322 325 328 329 328 323 319 320 324 325 322 322 322 324 326 327 328 329 330 331 336 336 332 331 332 325 318 320 323 325 325 324 325 327 330 336
317 317 314 313 316 320 323 324 324 325 326 325 323 326 330 329 326 326 326 324 324 326 327 326 326 326 327 327 327 327 326 325 324 323 321 320 320 321 322 323 324 326 325 320 316 318 321 320 320 322 324 325 326 327 327 329 331 333 333 328 321 318 318 317 319 325 328 328 330 333 336 338 339 341
315 314 314 315 319 322 324 325 326 325 325 324 323 324 327 327 326 325 322 320 323 326 325 324 324 325 325 326 325 322 321 321 322 323 323 323 323 323 323 323 323 325 323 318 314 316 318 320 322 324 324 324 325 326 327 330 332 329 323 318 317 316 317 320 324 327 328 328 330 333 335 335 336 337
315 318 320 321 322 324 325 326 327 326 325 323 322 323 325 325 324 322 319 320 324 324 322 322 324 324 324 324 322 320 320 320 322 323 323 323 323 323 323 323 322 322 320 316 313 315 319 322 323 322 322 322 324 326 327 327 325 321 316 316 318 319 320 323 326 327 327 328 329 330 330 328 326 324
322 325 325 324 324 324 325 326 326 325 324 323 324 324 324 324 323 321 319 320 322 322 320 321 324 323 322 321 320 320 321 320 321 321 321 321 322 321 322 322 321 320 319 315 313 316 320 322 320 320 321 322 323 325 325 321 317 316 315 317 319 319 321 323 325 326 327 328 328 328 326 324 322 322
326 326 324 324 323 323 323 324 323 323 323 323 324 324 323 322 322 321 320 321 322 320 318 321 322 321 320 319 319 320 320 319 320 320 320 319 320 320 320 320 319 318 316 314 313 317 319 318 317 319 321 321 321 321 320 317 315 316 317 318 319 319 320 322 324 325 325 325 326 326 324 324 324 325
326 324 323 323 323 322 322 322 322 322 323 322 322 322 321 320 320 320 320 321 319 317 318 320 321 319 318 319 319 318 318 318 318 318 317 317 318 317 317 317 316 315 314 313 314 317 317 316 316 318 318 317 317 316 316 316 316 317 318 319 319 320 320 322 323 324 323 322 323 323 323 324 323 322
323 323 322 322 321 321 321 321 321 321 321 321 320 320 319 319 319 319 318 318 316 316 319 320 319 318 318 318 317 316 316 316 316 316 315 316 316 315 314 314 314 313 312 313 315 316 315 314 316 316 316 314 314 314 314 315 316 317 318 319 319 319 321 322 322 322 321 320 321 322 322 321 320 319
321 320 320 320 320 319 319 319 319 319 319 318 318 318 317 317 317 316 315 315 316 317 318 319 318 318 317 316 315 314 314 314 314 314 314 314 313 312 311 312 312 312 312 313 315 314 313 313 315 315 314 313 313 314 314 314 315 318 318 317 318 319 321 321 320 319 319 320 320 320 320 319 319 320
319 319 318 318 318 318 317 317 317 317 317 316 316 316 315 315 316 315 314 315 315 315 316 317 317 316 315 314 314 313 313 312 312 312 312 311 310 310 310 311 311 311 312 313 313 312 311 312 313 313 313 313 313 313 313 313 315 316 316 316 318 320 319 318 317 318 319 318 317 317 318 319 319 319
318 317 317 316 316 316 316 315 315 315 315 315 315 314 313 314 315 314 314 315 314 314 314 314 314 314 313 312 312 312 311 311 311 311 310 309 309 309 310 310 310 311 311 311 310 310 310 311 311 311 312 312 312 312 312 313 313 314 315 317 318 318 316 315 316 316 315 315 315 317 318 317 317 316
316 316 315 315 314 314 314 314 314 313 313 313 313 312 313 313 313 313 313 314 313 313 312 312 311 311 311 310 310 310 309 309 309 308 308 308 309 309 309 309 310 310 309 309 308 309 309 310 309 309 310 311 311 311 311 311 312 313 314 316 316 314 314 314 314 313 313 314 315 315 315 314 315 316
315 314 314 314 313 313 313 313 313 312 312 312 311 311 311 312 312 312 312 311 311 311 311 309 309 308 308 307 307 307 307 307 306 306 306 306 307 308 308 309 309 309 308 308 308 308 308 308 308 308 309 309 309 309 309 310 311 312 313 312 312 312 312 312 312 312 313 314 313 313 313 313 315 316
314 313 313 313 312 312 312 312 311 311 311 311 310 310 310 310 310 310 310 309 309 309 308 307 306 306 305 305 305 304 304 304 303 303 304 303 304 305 306 307 307 307 307 308 308 308 307 306 306 307 307 307 307 308 309 311 311 311 310 310 309 310 310 310 311 312 312 312 312 312 313 314 315 316
312 312 312 311 311 311 310 310 310 309 309 309 309 309 309 309 309 308 308 308 307 307 306 305 304 304 303 303 303 302 302 302 302 302 302 302 302 303 304 304 305 305 306 307 307 307 305 305 305 305 305 306 307 309 310 310 310 309 309 309 308 308 309 309 309 310 310 311 312 313 313 314 315 316
311 310 310 310 309 309 309 308 308 308 308 308 307 307 308 307 307 307 306 306 305 304 304 303 303 302 302 302 301 301 301 301 301 301 301 301 301 302 302 303 303 304 305 306 306 305 304 304 304 304 304 306 307 308 308 309 309 308 308 308 308 308 308 308 308 309 310 312 313 313 313 313 313 314
309 309 309 308 308 307 307 307 307 307 307 306 306 306 306 305 305 304 304 303 303 302 302 302 301 301 301 301 300 300 300 300 300 300 300 300 300 301 301 302 303 304 304 304 304 304 304 304 304 304 305 306 306 307 307 308 308 308 307 307 307 307 307 308 308 310 311 312 312 311 311 311 311 312
308 307 307 306 306 306 305 305 305 305 305 305 305 304 304 304 303 302 302 301 301 301 301 300 300 300 299 299 299 299 299 299 299 299 299 300 300 300 301 302 302 303 303 303 303 304 304 304 304 304 305 305 305 305 306 306 306 307 307 307 307 307 307 308 309 310 310 309 309 309 309 309 309 310
Wind_Speed
3 4 3 3 3 4 3 2 2 2 2 2 1 2 2 1 1 1 2 3 4 8 13 11 9 12 13 14 16 18 19 16 14 14 15 14 13 15 18 20 22 23 24 24 22 20 17 15 14 14 15 16 16 17 18 19 21 22 22 22 22 21 20 19 20 20 20 19 18 17 16 15 13 12
4 4 3 3 3 2 2 2 2 3 4 2 1 2 4 3 3 2 2 3 4 8 12 11 11 14 14 15 17 17 17 16 14 14 15 15 15 17 18 19 21 21 22 22 19 17 17 17 16 16 16 17 17 17 18 19 21 22 22 22 22 22 20 19 19 19 19 19 18 16 15 14 13 12
5 5 4 4 4 3 4 4 3 3 4 3 2 3 5 6 6 5 5 3 5 8 11 12 13 15 15 16 17 17 16 14 14 14 16 16 16 16 17 19 20 19 20 21 19 18 20 20 18 18 19 20 20 20 20 21 22 24 24 23 22 22 21 20 18 18 18 18 18 17 15 14 13 13
5 6 6 6 6 5 6 7 6 4 4 5 6 8 9 8 9 9 7 6 8 11 11 11 13 15 15 16 16 17 17 15 14 14 16 17 16 15 17 19 19 17 19 21 20 20 21 20 20 20 21 23 23 23 23 23 24 25 26 26 24 23 21 20 18 16 16 16 17 17 15 14 14 13
6 6 5 6 7 6 6 7 8 7 6 7 10 11 12 12 9 10 10 9 10 12 11 9 12 14 15 15 16 17 17 15 14 14 16 16 16 16 17 17 16 16 19 19 18 20 22 22 22 22 23 24 24 23 24 24 25 26 26 26 25 24 22 20 17 15 14 15 15 16 16 15 14 13
7 7 6 6 6 7 8 8 7 6 6 8 9 7 8 10 7 5 7 9 9 9 9 10 12 14 15 16 16 16 15 15 14 14 15 16 16 16 16 14 13 15 18 18 18 22 24 23 23 23 24 25 25 25 26 25 25 24 23 24 24 25 23 20 17 15 14 14 14 15 16 15 15 14
7 7 6 6 7 7 8 9 9 8 8 9 7 5 2 4 4 3 3 4 4 6 9 11 14 15 15 17 16 15 14 13 13 13 14 15 14 14 15 15 14 14 16 18 20 23 23 23 23 24 25 27 28 28 26 24 23 22 21 22 24 24 22 19 18 15 13 14 14 14 15 16 15 14
7 7 8 8 8 8 9 9 8 8 8 8 7 7 6 5 5 4 4 5 5 7 9 12 14 15 16 16 15 13 13 13 13 13 13 15 15 16 17 17 14 14 16 19 21 21 20 21 24 26 27 28 27 26 24 22 22 21 22 22 23 23 21 17 17 16 14 14 14 15 16 16 16 15
8 8 9 9 8 8 9 8 6 6 7 6 5 6 6 4 4 5 5 6 6 7 10 12 13 14 14 15 15 15 16 17 15 15 16 18 18 17 16 15 14 15 18 20 21 20 19 21 26 28 27 25 23 22 22 22 22 22 23 23 22 22 20 18 16 15 14 14 15 16 17 17 16 15
9 8 9 10 9 9 10 9 8 7 7 6 5 5 5 5 5 5 5 6 7 8 10 11 13 14 13 14 17 18 18 19 18 17 17 17 16 15 16 18 18 18 19 20 20 20 21 26 29 28 26 23 22 22 22 21 22 23 24 23 23 22 20 18 16 14 14 13 16 18 18 17 16 15
10 9 9 9 10 11 11 11 10 8 7 6 5 6 6 5 5 5 5 6 7 8 9 11 13 14 14 15 17 17 17 17 15 14 15 16 17 19 20 21 21 20 20 21 21 22 26 29 28 26 25 24 22 22 22 22 22 24 24 23 23 23 21 18 15 13 13 13 16 18 18 17 16 14
10 10 9 9 10 10 10 11 12 10 8 7 6 6 5 4 3 4 4 5 7 8 10 12 13 14 15 16 15 16 18 16 13 14 17 18 19 21 22 21 21 21 21 21 23 27 28 28 27 26 24 22 21 22 24 24 24 23 24 24 24 23 20 17 14 12 11 12 15 17 18 16 15 15
10 9 8 8 9 8 7 9 11 11 10 8 7 7 6 6 6 7 7 8 9 10 11 12 12 13 15 15 15 17 17 15 13 16 19 20 20 21 23 23 22 21 20 21 25 27 26 25 26 25 23 22 22 22 23 24 23 23 23 23 23 22 19 15 13 11 11 12 14 16 18 17 15 15
9 9 8 7 6 6 6 8 10 11 10 9 8 8 8 8 9 9 10 10 11 10 11 13 12 12 14 15 16 17 15 13 14 17 18 18 19 21 22 24 24 21 20 22 25 24 22 23 23 23 22 22 22 23 23 23 23 23 23 22 22 22 18 15 13 12 12 13 15 16 17 17 16 15
7 7 5 2 2 3 5 7 8 9 8 8 8 8 8 8 7 8 9 11 12 12 13 14 13 12 13 15 16 14 12 12 13 15 15 16 18 18 18 19 21 22 21 21 22 22 21 21 21 22 21 21 23 25 25 24 23 22 22 22 23 22 19 17 15 15 16 16 17 17 17 17 17 15
8 7 3 3 3 2 3 5 6 6 6 7 7 7 6 6 5 6 8 10 12 14 15 16 15 14 14 15 14 12 11 12 13 14 15 16 16 16 15 16 19 21 19 18 20 22 22 21 21 22 22 24 26 26 25 24 20 20 22 22 22 22 20 19 18 17 17 19 19 19 18 18 17 16
3 4 4 5 3 3 4 4 3 4 5 6 6 5 4 3 3 5 6 6 7 9 10 12 13 11 11 12 10 8 9 12 13 14 15 16 15 15 15 16 19 18 16 18 21 21 21 22 23 24 25 26 27 25 22 19 18 20 22 20 19 21 21 19 19 18 18 19 19 19 19 19 18 18
2 3 4 5 4 4 4 4 3 3 4 4 4 4 2 1 3 5 5 4 4 5 5 5 7 7 7 7 7 8 10 12 13 13 14 14 13 13 13 14 15 14 14 19 19 17 20 24 23 24 25 25 24 21 17 17 19 21 20 17 17 20 21 21 20 18 18 18 18 18 19 19 20 20
4 4 4 4 4 4 4 3 3 3 2 3 4 3 2 1 3 5 5 4 4 4 4 4 6 7 7 8 8 10 11 11 10 10 10 10 11 12 13 13 14 14 15 17 15 14 20 23 21 22 25 24 20 17 15 18 22 22 18 16 17 19 21 22 20 18 18 19 19 20 20 20 19 19
5 5 4 4 4 3 3 2 2 1 1 2 3 4 3 2 2 3 3 2 3 4 5 6 7 6 6 7 7 7 7 8 9 9 9 10 12 14 15 14 15 17 16 14 13 16 20 21 20 21 24 23 17 14 16 20 22 21 19 18 19 21 21 20 18 17 18 20 21 21 21 20 19 18
6 6 4 3 3 2 1 1 1 2 2 3 3 3 4 3 1 1 1 4 6 7 7 5 6 6 5 4 4 6 7 8 10 11 12 13 14 13 12 11 15 19 15 11 14 19 20 21 21 21 22 20 14 12 18 22 20 20 21 21 22 23 22 20 19 19 20 22 23 23 22 21 19 18
6 6 5 3 2 1 2 3 4 4 4 3 2 1 1 2 1 2 4 6 6 6 6 7 7 6 4 3 5 8 9 10 12 13 14 14 12 11 11 11 15 17 13 12 18 21 20 21 23 22 21 18 12 12 21 24 21 20 22 23 23 23 22 21 20 20 22 25 25 23 22 21 20 19
5 5 4 3 3 4 5 5 5 4 3 1 0 1 2 2 1 3 5 6 7 8 9 10 9 8 6 6 8 11 12 12 12 13 14 14 12 12 12 13 14 12 11 16 21 21 20 21 22 22 18 11 9 16 25 26 23 22 24 25 25 24 23 22 21 21 23 26 25 24 22 22 21 20
7 6 5 5 6 6 5 5 5 5 4 3 3 3 3 4 5 6 8 9 9 9 9 11 11 10 9 10 10 11 12 13 12 13 14 14 13 13 14 16 14 11 13 20 24 21 19 19 20 21 18 10 10 19 27 27 25 25 27 28 28 26 24 22 21 22 25 26 26 25 24 24 23 22
9 7 4 4 5 5 4 5 6 6 6 6 6 6 6 6 7 8 8 9 9 8 9 10 11 11 10 10 10 11 13 15 14 13 14 14 14 15 16 17 17 16 18 22 24 21 17 16 19 22 20 15 15 20 25 26 26 27 29 30 30 28 26 23 21 23 26 28 28 27 26 26 26 26
9 7 5 5 5 5 5 5 6 7 8 9 9 9 7 5 6 8 8 9 9 9 10 12 13 12 11 11 11 12 14 14 13 11 12 14 15 13 13 14 15 17 19 21 22 19 16 16 19 21 21 20 20 21 23 23 25 29 31 31 31 30 27 23 22 25 28 29 29 29 28 25 26 27
8 8 7 7 6 6 7 8 9 9 10 11 12 11 8 6 7 8 9 8 8 9 12 13 15 15 14 13 14 15 15 13 11 10 12 15 16 14 13 12 13 15 18 20 21 21 20 20 22 24 24 23 22 21 21 22 25 29 31 31 31 29 27 25 26 28 30 30 30 30 28 26 25 26
9 8 8 7 6 7 8 10 11 12 12 12 13 12 10 9 9 9 9 9 9 11 13 14 16 15 14 14 15 16 15 13 12 12 13 14 15 16 14 13 14 18 20 20 21 21 23 24 25 25 25 25 22 19 19 22 27 29 28 28 28 26 25 28 31 31 31 31 31 30 29 28 27 27
8 7 7 7 7 7 8 11 13 13 11 11 12 11 10 9 9 9 9 10 11 13 14 14 15 14 14 14 14 13 13 13 13 14 15 17 18 18 16 15 16 18 20 21 21 21 22 24 25 24 24 25 24 23 22 23 26 26 25 26 27 26 26 31 33 32 33 33 32 30 30 30 29 30
7 7 7 8 7 6 6 9 11 11 11 11 11 12 13 12 11 10 11 12 14 15 14 14 14 14 13 13 12 12 14 15 15 16 18 19 19 20 19 18 18 18 20 20 21 22 23 22 22 23 26 26 25 26 26 23 22 22 24 27 28 26 28 32 33 33 35 34 32 30 30 29 29 31
8 9 8 7 6 5 5 6 7 10 13 14 15 15 14 14 15 14 13 14 15 15 13 12 13 13 13 13 14 15 16 17 17 17 17 18 19 19 18 19 20 21 21 22 22 22 21 21 22 24 26 26 26 27 25 20 20 24 28 29 28 26 29 34 35 34 34 33 32 32 31 31 31 32
9 8 9 10 11 14 15 14 11 13 16 18 19 18 15 14 15 14 13 14 15 14 12 12 14 14 14 14 15 16 16 17 17 17 17 18 18 18 17 18 21 22 24 25 25 22 21 22 23 23 22 21 23 24 22 20 22 27 30 30 30 29 31 34 35 35 34 33 32 32 32 32 32 31
9 10 13 15 15 17 20 20 17 16 16 18 19 19 17 16 16 15 14 15 14 13 12 14 16 15 14 15 16 16 16 17 16 16 17 18 18 18 18 19 21 23 24 26 27 26 26 26 26 23 20 17 17 19 19 19 23 26 26 26 29 31 32 32 33 34 34 33 33 32 31 30 29 29
13 16 18 19 18 18 20 21 20 18 16 17 19 19 19 19 18 16 15 14 13 12 12 14 16 15 14 15 16 17 17 17 17 17 18 19 19 20 20 21 22 23 25 26 27 28 29 29 28 25 21 19 18 14 12 16 22 25 23 23 25 29 31 30 30 30 30 30 31 32 32 31 29 28
19 20 21 22 21 20 21 21 20 18 17 17 17 18 19 19 18 17 15 14 13 12 13 14 15 14 14 15 16 17 18 18 18 19 19 19 20 21 21 21 21 23 25 26 27 28 29 30 31 29 26 26 23 15 11 17 24 25 24 25 27 30 30 29 28 28 28 27 28 29 30 33 34 34
21 21 22 22 21 20 21 20 18 18 18 17 16 17 17 17 17 17 16 15 13 12 14 15 15 14 14 14 15 16 18 18 19 20 20 20 21 22 22 21 21 23 25 25 25 27 28 28 30 29 25 24 19 11 12 20 22 20 24 31 33 32 31 31 31 30 27 26 27 27 28 30 33 36
21 21 21 21 20 20 20 19 18 18 17 16 16 16 15 14 15 15 15 14 13 13 15 16 15 14 15 15 15 15 16 17 18 20 20 21 23 23 22 21 21 23 23 22 23 25 26 26 28 27 23 17 10 8 17 25 20 16 23 32 32 30 31 34 34 32 29 28 29 29 29 29 32 35
19 19 19 20 19 18 18 18 18 17 16 16 15 15 13 13 13 13 13 13 13 14 16 17 17 17 18 17 16 16 17 17 18 20 21 22 23 23 22 21 22 22 21 21 22 23 23 24 26 26 23 16 8 8 18 28 27 24 26 28 27 30 33 33 31 32 33 33 32 30 28 30 33 35
16 16 17 17 17 16 16 16 16 16 15 15 15 13 13 13 13 13 12 12 12 13 16 19 19 18 19 19 18 18 19 19 20 21 22 22 22 22 22 21 21 21 22 22 22 23 23 23 25 26 25 21 17 17 22 29 33 33 29 24 24 29 33 32 31 33 33 33 33 33 33 33 33 33
16 17 17 17 17 16 14 14 14 14 14 14 13 12 13 14 14 14 15 14 13 13 16 18 19 18 19 19 19 18 18 19 20 20 21 21 21 22 22 21 20 20 21 21 21 21 22 23 24 25 24 23 23 25 26 26 28 29 29 27 26 27 28 29 32 33 32 33 35 36 36 36 35 33
18 19 18 16 16 15 14 13 13 13 13 13 13 12 13 14 14 15 16 17 16 16 17 19 19 19 20 20 19 19 19 19 20 19 20 21 21 21 21 21 21 20 20 20 18 17 20 22 22 21 22 23 23 23 20 18 19 23 28 30 29 27 25 25 26 28 29 33 35 35 33 33 33 32
18 17 16 14 14 14 13 13 13 14 14 14 14 14 13 13 12 12 13 15 16 17 18 19 19 19 19 19 19 19 19 19 19 19 20 20 20 20 20 20 21 21 22 21 18 17 20 23 22 21 22 23 22 19 15 15 17 21 25 29 30 30 28 25 24 24 26 29 30 30 30 29 26 23
17 16 15 14 14 13 13 13 13 13 13 13 14 15 15 14 14 13 13 15 16 17 17 18 18 18 18 19 18 19 19 18 19 19 19 19 19 20 20 21 21 22 23 22 20 21 23 23 22 22 22 21 20 18 17 18 20 21 24 27 29 30 30 29 28 27 25 23 23 24 26 27 23 19
15 14 13 12 12 13 12 12 12 11 10 11 13 14 15 15 16 15 14 15 16 16 17 17 18 18 19 19 19 19 18 18 18 19 19 18 19 20 21 21 22 22 22 23 23 25 25 22 20 21 21 20 20 20 20 20 21 22 24 26 27 29 31 33 32 29 24 21 21 24 27 28 27 26
15 14 13 12 12 12 12 11 11 11 9 10 12 13 13 13 15 15 15 15 16 16 16 17 18 19 19 18 18 17 17 17 18 18 18 18 19 20 20 21 21 22 23 24 25 26 25 23 21 21 20 20 21 21 21 22 22 23 24 25 26 28 30 30 29 28 26 26 26 27 27 29 29 29
Wind_Direction
205 245 250 242 276 317 322 302 334 328 318 340 273 275 316 210 167 20 323 324 313 317 335 345 342 341 336 328 328 330 336 342 342 346 350 348 346 340 330 328 333 336 335 334 330 326 326 326 323 325 331 336 341 345 347 347 348 348 347 345 344 342 340 338 335 334 331 330 326 322 320 319 316 313
238 266 261 242 233 260 286 253 261 269 269 292 240 258 289 258 211 183 222 279 301 305 321 333 330 330 330 330 331 333 339 346 346 348 347 342 340 335 334 339 344 346 351 353 351 348 346 342 335 329 326 328 331 335 339 340 341 342 341 341 342 342 341 339 336 335 333 332 329 325 320 317 315 312
246 258 258 259 242 247 266 254 273 278 237 226 217 245 263 255 245 233 217 236 285 295 307 319 325 330 331 331 332 334 338 345 349 347 339 334 331 332 340 346 343 344 354 359 357 355 353 350 342 334 329 326 324 325 328 331 333 334 333 333 334 336 339 340 337 334 334 333 331 328 322 317 314 311
257 255 242 246 250 257 265 260 265 267 244 249 255 252 248 243 247 248 230 225 260 284 296 308 321 329 330 330 332 332 330 335 343 342 337 335 336 339 341 340 340 345 351 350 350 352 352 349 345 340 338 334 329 325 324 325 327 329 328 327 325 326 331 336 337 334 334 334 332 329 325 319 315 311
258 259 242 237 242 246 255 264 265 254 247 267 283 272 250 243 253 256 246 243 259 281 294 305 319 327 329 327 329 333 334 337 342 339 335 337 338 337 333 334 348 358 352 346 347 350 349 347 344 341 339 339 339 337 333 331 330 329 328 326 323 320 319 325 331 331 332 335 334 331 328 322 317 312
256 260 254 249 255 258 251 252 259 258 259 282 309 308 251 250 276 282 267 264 264 282 302 314 321 326 327 325 329 336 336 337 341 339 334 334 335 335 332 334 345 353 353 351 348 345 343 342 340 337 337 341 345 342 337 333 332 330 330 330 328 323 314 311 318 324 328 333 337 336 331 325 319 314
254 260 261 260 267 269 261 261 264 257 261 279 303 338 309 285 314 324 298 298 291 300 316 321 322 323 323 323 328 335 331 330 334 332 329 332 337 342 340 334 330 334 346 348 341 338 339 341 342 340 339 340 340 336 333 333 334 335 335 334 335 334 324 308 305 312 321 329 336 340 336 328 322 316
249 257 260 261 265 265 266 277 278 258 259 275 284 299 316 326 326 314 309 322 325 319 316 316 316 318 320 323 330 333 329 328 328 325 326 327 328 331 335 337 332 331 338 339 336 338 343 343 340 336 333 333 335 335 335 338 341 342 342 342 344 346 342 324 306 302 311 324 333 339 338 330 323 317
251 256 258 259 263 265 265 275 282 268 268 275 273 288 308 318 321 317 313 313 317 314 312 312 315 318 322 327 331 330 323 319 316 317 323 325 325 329 338 347 345 340 340 341 341 343 343 337 333 332 334 336 340 342 343 344 347 347 347 349 350 351 350 341 321 303 302 319 332 336 336 331 324 319
254 260 262 260 258 258 258 258 262 266 271 274 271 281 296 302 305 308 312 316 318 315 313 312 313 320 326 327 327 331 331 323 312 314 329 340 344 345 347 347 346 346 346 345 343 340 334 330 331 337 342 345 347 349 348 347 349 350 349 350 351 351 350 347 334 314 301 312 331 335 334 331 325 321
256 263 269 273 270 268 265 260 257 258 263 268 269 270 278 293 302 302 305 317 320 317 316 315 314 318 323 323 325 335 344 340 331 335 349 353 350 346 342 342 344 347 346 343 336 329 328 329 333 340 345 349 351 352 350 347 346 349 351 351 350 348 347 347 341 325 306 309 327 335 334 332 328 323
260 266 269 276 274 271 269 261 255 251 253 259 256 254 260 264 272 288 296 303 307 309 312 314 315 318 320 324 329 336 341 347 352 356 353 348 344 341 337 336 341 345 343 336 328 326 329 333 337 342 345 352 356 353 351 350 349 350 351 350 348 344 341 340 339 331 315 312 326 334 335 334 331 327
273 272 275 283 276 270 270 262 254 247 246 254 251 241 250 263 272 282 286 289 297 304 308 309 312 317 318 323 330 333 335 342 345 342 341 340 339 335 330 330 337 342 338 330 326 328 334 337 338 341 345 352 355 351 351 352 351 351 351 349 349 348 344 342 339 333 324 320 327 333 335 336 334 331
279 274 282 292 281 271 273 266 257 250 250 258 255 251 269 286 290 293 294 297 300 301 299 299 302 307 311 316 323 326 329 335 338 339 340 339 336 335 334 331 334 339 337 331 327 329 337 340 338 341 347 351 349 347 347 346 343 348 355 356 355 355 355 354 347 337 330 327 329 332 334 337 337 335
285 283 287 273 221 228 249 253 252 253 259 265 261 263 279 289 292 300 304 304 301 295 291 292 294 299 304 313 322 326 330 337 340 340 340 340 338 339 336 326 326 336 341 337 331 331 338 343 340 342 346 344 342 343 344 340 339 348 357 359 358 358 359 0 353 340 331 325 324 327 331 334 336 335
289 277 250 192 206 223 225 241 252 250 251 253 254 261 274 280 288 304 312 312 307 301 296 293 296 300 303 310 321 328 332 335 335 334 334 336 336 332 327 316 318 332 341 340 336 333 336 343 342 340 340 338 338 341 342 342 347 352 352 353 358 358 358 1 0 353 342 331 322 320 321 325 329 330
272 237 200 183 193 203 210 231 246 242 241 247 257 264 267 284 320 333 336 335 323 313 306 301 304 309 310 311 317 323 327 329 330 330 331 333 333 327 322 317 320 329 335 334 335 333 335 343 343 337 337 340 342 346 351 356 1 353 345 350 359 356 354 358 1 359 354 346 335 324 317 314 317 320
177 178 183 182 178 175 198 219 224 234 250 257 264 268 263 6 28 11 1 12 10 1 6 359 348 348 341 328 316 311 315 322 328 331 333 336 336 330 326 325 329 334 333 333 335 333 336 344 343 337 341 346 350 1 12 12 4 351 345 353 359 352 350 353 355 356 355 352 346 338 329 321 314 311
150 156 158 162 164 167 179 194 209 236 268 275 276 282 282 56 47 18 7 30 39 25 29 13 351 347 340 331 322 317 318 324 335 341 342 345 344 340 340 341 342 342 339 339 339 332 336 344 344 341 347 353 359 17 24 8 1 359 359 4 2 353 349 349 352 356 356 355 354 350 344 336 326 315
145 149 155 153 150 158 169 174 200 227 282 311 314 316 315 331 27 27 17 27 8 347 343 340 341 346 345 339 338 339 344 352 358 359 360 1 359 355 353 352 349 347 343 342 341 333 335 344 345 343 350 356 4 21 14 2 3 8 9 9 4 358 357 359 1 3 3 3 3 358 352 346 339 330
148 147 154 161 155 149 139 90 341 326 331 330 329 327 331 349 39 113 306 314 322 332 343 1 17 16 7 6 7 7 12 15 15 15 13 11 9 3 358 349 343 345 346 347 346 339 337 344 346 343 347 355 5 10 1 360 6 9 8 7 3 1 4 8 11 11 8 7 5 0 356 352 346 340
146 141 136 136 135 98 48 21 4 350 340 329 322 341 40 62 68 304 317 329 345 8 28 41 43 35 27 27 21 23 27 24 23 23 17 10 7 5 360 345 337 342 348 349 346 340 336 344 349 346 345 352 1 355 351 356 4 6 3 360 359 3 6 8 12 13 7 5 5 3 360 357 353 349
142 130 115 97 80 65 49 40 34 24 12 6 69 133 131 109 43 9 18 28 32 37 42 47 51 50 42 33 39 45 40 28 23 23 16 8 5 5 360 350 342 339 337 340 343 340 335 340 348 350 347 345 345 344 345 350 358 360 356 355 359 4 7 9 13 12 5 3 5 5 3 1 358 355
139 122 99 76 67 65 62 63 65 69 79 91 93 91 94 87 72 62 56 48 38 37 47 55 59 59 52 47 47 43 32 25 25 26 25 22 19 11 360 354 349 335 327 336 340 334 330 335 344 350 350 338 325 334 339 345 353 354 352 354 358 4 7 9 11 10 5 4 5 5 4 3 360 357
133 126 106 74 67 77 87 86 88 92 93 92 85 79 80 83 74 61 51 45 43 48 56 59 60 59 54 46 34 22 22 26 24 22 22 20 17 13 6 1 354 338 335 347 348 338 332 338 343 348 350 343 330 330 334 339 345 348 350 353 356 360 4 5 6 6 4 4 3 2 0 1 360 357
127 122 115 99 91 97 105 103 99 93 86 84 81 76 75 74 62 55 53 51 49 52 57 59 56 51 44 34 23 19 25 24 16 10 6 359 356 359 2 3 358 347 351 6 11 5 357 355 356 357 355 347 338 335 336 336 340 346 351 354 354 357 1 2 2 2 0 358 356 354 353 355 358 357
121 114 110 108 105 105 106 103 98 90 87 85 75 67 71 75 67 62 62 59 55 55 57 54 49 42 36 29 22 22 25 23 14 4 354 347 348 354 1 9 13 13 14 15 15 17 15 9 4 3 358 350 343 340 338 336 338 343 348 352 357 2 5 4 1 358 356 354 353 351 350 352 355 357
122 116 111 108 106 106 103 99 95 91 89 82 68 66 78 75 59 56 58 57 57 56 51 46 43 38 33 28 26 26 26 18 5 357 354 356 2 7 13 21 26 26 20 9 8 16 15 6 359 357 357 354 346 339 335 334 336 341 347 354 360 4 4 1 358 357 358 358 358 358 358 357 358 359
123 119 117 115 114 111 103 99 95 87 80 71 63 71 84 74 56 56 58 55 57 55 47 41 40 37 32 28 24 20 15 7 2 5 8 11 13 15 17 23 28 22 11 3 7 12 7 359 356 356 358 356 348 339 335 333 337 348 358 359 357 358 359 360 0 0 1 1 2 4 4 2 1 360
118 116 120 125 125 118 107 106 97 75 61 63 72 84 93 88 77 69 61 58 58 53 46 42 39 36 33 28 17 11 13 15 17 17 13 9 11 13 12 14 17 12 3 2 8 6 1 3 5 1 358 355 349 344 343 340 345 357 3 1 358 356 356 359 2 3 2 0 1 3 4 3 1 360
127 125 120 110 99 89 96 117 109 75 64 70 79 86 92 87 76 66 62 65 60 49 44 45 41 36 34 27 20 19 21 22 22 20 13 10 10 10 8 10 9 4 358 0 6 8 8 12 11 4 358 353 348 350 353 358 2 1 359 0 2 357 354 357 1 3 1 359 357 358 358 356 353 351
122 119 104 88 83 85 87 91 92 83 76 74 75 77 79 75 64 55 56 61 54 43 42 46 42 37 33 27 24 26 24 22 22 19 14 13 12 9 11 14 12 5 358 357 2 11 17 13 8 4 1 355 349 351 356 3 5 360 357 360 1 357 357 359 358 358 358 356 353 352 349 347 348 349
101 94 88 84 85 84 81 78 78 76 74 70 68 68 66 60 52 47 50 52 44 34 37 44 41 36 31 26 26 29 26 23 22 20 17 17 16 16 17 18 15 9 360 354 357 5 9 7 5 4 2 358 352 350 353 358 360 358 358 359 356 354 355 357 355 355 356 354 348 343 341 342 347 349
91 88 83 80 79 77 74 72 71 68 66 64 63 62 58 53 50 52 53 46 33 29 39 44 40 32 27 27 29 29 25 23 22 21 20 19 18 19 21 19 13 7 359 354 355 360 1 2 2 1 358 358 357 357 1 2 357 353 353 355 352 348 348 350 352 353 354 350 344 339 337 338 342 342
88 85 80 77 75 74 71 69 67 65 63 61 59 58 56 54 53 51 45 33 27 34 42 41 34 28 27 30 32 28 25 24 23 21 21 21 21 21 20 16 8 2 357 354 356 360 1 0 360 359 357 355 356 360 8 3 356 350 350 350 347 344 343 345 348 349 347 346 345 341 336 334 334 336
82 80 77 74 72 72 70 68 67 65 62 60 58 55 53 54 51 43 35 32 37 42 36 30 30 33 34 34 32 28 25 23 21 20 21 21 20 16 13 10 5 359 356 357 359 1 2 1 2 2 357 351 351 350 346 352 358 358 351 345 341 341 343 344 345 345 344 345 346 342 335 329 327 331
81 78 76 74 72 72 70 67 65 62 60 58 56 51 48 50 47 37 32 35 40 37 30 29 33 34 30 26 23 20 20 19 18 19 19 16 12 9 6 3 359 355 356 360 2 2 360 359 2 3 357 349 347 331 328 338 351 1 349 341 338 342 347 345 342 342 343 343 340 337 332 327 324 327
82 80 78 75 72 72 71 67 63 62 59 55 52 48 46 47 43 35 33 39 38 33 33 36 37 34 31 30 27 25 25 24 23 21 18 12 8 5 2 358 355 354 357 360 360 359 359 359 360 360 355 348 342 330 328 330 332 337 343 343 342 343 346 344 341 339 337 335 334 333 331 326 322 324
84 82 80 76 72 71 71 65 61 61 58 52 49 47 43 41 38 33 35 42 43 39 38 39 39 40 41 41 38 35 32 29 25 19 14 9 4 359 355 352 350 352 354 354 352 353 356 356 354 352 349 342 334 328 324 320 319 324 334 342 344 343 341 340 338 334 331 330 331 330 328 325 324 328
86 82 81 78 71 68 67 63 58 57 54 48 45 44 40 38 39 41 43 44 42 38 40 41 40 40 39 36 34 32 28 23 18 14 9 5 0 355 351 348 345 346 347 345 345 348 351 351 348 343 339 334 329 325 322 317 316 322 329 333 337 340 338 335 334 330 327 330 331 329 326 326 326 330
87 83 81 80 75 69 68 66 61 57 54 49 46 45 42 41 45 49 51 51 49 46 46 44 41 37 33 30 28 26 21 16 13 8 2 358 354 350 348 345 343 342 339 334 334 342 345 342 339 337 334 332 328 325 323 322 321 325 326 326 329 333 333 332 331 328 325 327 326 322 320 322 323 327
85 82 76 76 77 72 69 70 66 60 56 53 49 44 41 41 43 45 48 52 52 49 45 41 37 34 30 25 21 18 14 10 5 360 355 351 346 343 342 341 338 336 332 326 326 333 336 334 334 334 333 332 330 326 323 322 320 321 322 323 325 328 330 331 330 327 324 324 322 317 316 319 321 326
85 84 79 77 79 74 70 69 64 57 54 53 49 46 49 53 53 49 47 48 47 42 36 31 27 24 21 16 11 8 5 1 357 352 349 346 342 338 336 334 332 331 329 326 326 329 330 331 335 336 332 331 331 327 320 318 318 318 319 321 323 326 328 328 328 328 328 332 333 328 325 325 326 325
83 81 77 73 71 67 64 62 56 50 50 50 46 47 54 60 58 52 46 40 37 34 29 24 19 15 11 7 3 360 357 353 349 346 343 341 339 335 332 331 331 332 332 331 332 331 328 328 334 337 334 331 331 328 321 318 319 319 319 321 323 324 326 327 328 331 334 339 340 336 333 331 328 323
82 79 76 74 69 65 65 63 55 49 48 47 46 49 53 53 50 44 38 32 29 25 21 17 11 7 3 360 356 351 347 344 343 341 339 338 336 334 333 333 333 334 335 335 334 333 332 333 336 338 335 332 330 327 323 320 320 319 320 321 322 322 323 325 328 332 335 336 336 335 333 331 328 324